FW3814 Weather Reports


time (UTC)temp
F
wind
direction
speed
knots
gust
knots
rain 1hr
in
rain 24hr
in
rain mn
in
humidity
%
barometer
mb
20260906042005 74 49 1.7 4.3 0.00 0.00 0.00 43 1020.3
20260906041505 74 65 2.6 3.5 0.00 0.00 0.00 43 1020.4
20260906041005 75 66 3.5 3.5 0.00 0.00 0.00 42 1020.3
20260906040505 75 58 3.5 3.5 0.00 0.00 0.00 42 1020.3
20260906040005 75 40 3.5 3.5 0.00 0.00 0.00 42 1020.3
20260906035526 75 34 1.7 3.5 0.00 0.00 0.00 42 1020.3
20260906035005 75 22 1.7 3.5 0.00 0.00 0.00 41 1020.2
20260906034505 75 21 1.7 3.5 0.00 0.00 0.00 41 1020.1
20260906034005 75 33 0.9 3.5 0.00 0.00 0.00 41 1020.3
20260906033505 75 35 0.9 2.6 0.00 0.00 0.00 42 1020.2
20260906033005 75 20 0.0 2.6 0.00 0.00 0.00 42 1020.1
20260906032505 74 0 0.0 0.0 0.00 0.00 0.00 43 1020.2
20260906032005 74 0 0.0 0.0 0.00 0.00 0.00 43 1020.0
20260906031526 74 0 0.0 0.0 0.00 0.00 0.00 43 1020.1
20260906031005 73 0 0.0 0.0 0.00 0.00 0.00 43 1020.1
20260906030526 73 360 0.0 1.7 0.00 0.00 0.00 43 1020.1
20260906030005 74 360 0.0 1.7 0.00 0.00 0.00 42 1019.9
20260906025526 75 17 0.0 2.6 0.00 0.00 0.00 41 1020.0
20260906025026 75 17 0.9 3.5 0.00 0.00 0.00 41 1019.9
20260906024505 75 24 0.9 3.5 0.00 0.00 0.00 41 1019.9
20260906024005 75 41 0.0 3.5 0.00 0.00 0.00 41 1019.9
20260906023505 76 22 0.0 0.9 0.00 0.00 0.00 41 1019.9
20260906023005 76 22 0.0 0.9 0.00 0.00 0.00 41 1019.8
20260906022505 76 22 0.0 0.9 0.00 0.00 0.00 40 1019.7
20260906022005 76 0 0.0 0.0 0.00 0.00 0.00 40 1019.9
20260906021505 76 0 0.0 0.0 0.00 0.00 0.00 40 1019.8
20260906021005 76 0 0.0 0.0 0.00 0.00 0.00 41 1019.6
20260906020505 77 0 0.0 0.0 0.00 0.00 0.00 40 1019.6
20260906020005 77 22 0.0 0.9 0.00 0.00 0.00 40 1019.6
20260906015505 77 5 0.0 1.7 0.00 0.00 0.00 40 1019.4
20260906015005 77 5 0.0 1.7 0.00 0.00 0.00 41 1019.4
20260906014505 77 22 0.0 0.9 0.00 0.00 0.00 41 1019.5
20260906014005 77 22 0.0 0.9 0.00 0.00 0.00 41 1019.5
20260906013505 77 22 0.0 0.9 0.00 0.00 0.00 41 1019.3
20260906013005 77 22 0.0 0.9 0.00 0.00 0.00 41 1019.5
20260906012505 77 0 0.0 0.0 0.00 0.00 0.00 41 1019.4
20260906012005 77 22 0.0 0.9 0.00 0.00 0.00 41 1019.3
20260906011505 77 22 0.0 1.7 0.00 0.00 0.00 41 1019.3
20260906011005 76 20 0.0 1.7 0.00 0.00 0.00 40 1019.3
20260906010505 76 35 0.0 1.7 0.00 0.00 0.00 40 1019.5
20260906010005 76 45 0.0 1.7 0.00 0.00 0.00 40 1019.3
20260906005505 76 27 0.9 1.7 0.00 0.00 0.00 40 1019.4
20260906005005 76 29 1.7 4.3 0.00 0.00 0.00 40 1019.3
20260906004526 76 34 2.6 4.3 0.00 0.00 0.00 40 1019.4
20260906004005 77 66 2.6 5.2 0.00 0.00 0.00 40 1019.2
20260906003526 77 96 4.3 7.0 0.00 0.00 0.00 40 1019.2
20260906003026 77 93 7.0 10.4 0.00 0.00 0.00 40 1019.1
20260906002505 77 84 6.1 10.4 0.00 0.00 0.00 40 1019.2
20260906002005 77 75 3.5 6.1 0.00 0.00 0.00 40 1019.3
20260906001505 78 62 1.7 5.2 0.00 0.00 0.00 38 1019.0
20260906001026 78 29 1.7 1.7 0.00 0.00 0.00 38 1018.9
20260906000505 78 22 2.6 3.5 0.00 0.00 0.00 38 1019.0
20260906000005 78 26 2.6 4.3 0.00 0.00 0.00 38 1019.0
20260905235505 78 20 3.5 4.3 0.00 0.00 0.00 39 1018.9
20260905235005 78 10 3.5 4.3 0.00 0.00 0.00 40 1019.0
20260905234505 78 15 2.6 3.5 0.00 0.00 0.00 40 1018.9
20260905234005 77 17 2.6 3.5 0.00 0.00 0.00 40 1018.9
20260905233505 77 7 1.7 2.6 0.00 0.00 0.00 40 1019.0
20260905233026 77 350 1.7 4.3 0.00 0.00 0.00 40 1018.9
20260905232505 76 355 1.7 4.3 0.00 0.00 0.00 41 1019.0
20260905232005 76 7 1.7 4.3 0.00 0.00 0.00 41 1019.2
20260905231505 76 346 1.7 4.3 0.00 0.00 0.00 41 1019.0
20260905231003 76 1 1.7 4.3 0.00 0.00 0.00 41 1018.9
20260905230503 76 353 1.7 4.3 0.00 0.00 0.00 41 1018.9
20260905230003 76 345 0.9 3.5 0.00 0.00 0.00 41 1018.9
20260905225503 76 2 1.7 3.5 0.00 0.00 0.00 40 1018.9
20260905225003 77 3 2.6 3.5 0.00 0.00 0.00 40 1019.0
20260905224503 77 358 2.6 3.5 0.00 0.00 0.00 40 1018.9
20260905224024 77 1 2.6 3.5 0.00 0.00 0.00 40 1018.9
20260905223503 78 7 2.6 3.5 0.00 0.00 0.00 40 1018.8
20260905223003 78 3 1.7 3.5 0.00 0.00 0.00 38 1018.8
20260905222524 79 3 1.7 2.6 0.00 0.00 0.00 38 1018.7
20260905222003 79 13 1.7 5.2 0.00 0.00 0.00 37 1018.7
20260905221503 80 23 2.6 5.2 0.00 0.00 0.00 35 1018.8
20260905221003 80 12 3.5 3.5 0.00 0.00 0.00 35 1018.6
20260905220503 81 14 4.3 5.2 0.00 0.00 0.00 35 1018.6
20260905220004 81 21 3.5 7.0 0.00 0.00 0.00 35 1018.7
20260905215503 81 19 2.6 7.0 0.00 0.00 0.00 35 1018.7
20260905215003 81 22 1.7 5.2 0.00 0.00 0.00 35 1018.6
20260905214503 81 22 1.7 5.2 0.00 0.00 0.00 35 1018.6
20260905214003 81 22 0.9 2.6 0.00 0.00 0.00 35 1018.6
20260905213503 81 13 0.9 2.6 0.00 0.00 0.00 35 1018.6
20260905213024 81 11 1.7 4.3 0.00 0.00 0.00 35 1018.5
20260905212503 81 12 2.6 4.3 0.00 0.00 0.00 36 1018.4
20260905212003 81 17 1.7 4.3 0.00 0.00 0.00 36 1018.4
20260905211524 81 22 1.7 4.3 0.00 0.00 0.00 37 1018.5
20260905211003 81 30 1.7 4.3 0.00 0.00 0.00 37 1018.3
20260905210503 81 25 2.6 3.5 0.00 0.00 0.00 38 1018.1
20260905210003 80 19 2.6 4.3 0.00 0.00 0.00 39 1018.1
20260905205503 80 11 1.7 4.3 0.00 0.00 0.00 40 1018.1
20260905205024 80 13 2.6 3.5 0.00 0.00 0.00 40 1018.3
20260905204503 80 14 1.7 3.5 0.00 0.00 0.00 41 1018.1
20260905204024 80 11 1.7 3.5 0.00 0.00 0.00 41 1018.0
20260905203503 80 13 2.6 3.5 0.00 0.00 0.00 41 1017.9
20260905203003 80 9 1.7 3.5 0.00 0.00 0.00 42 1018.0
20260905202503 80 7 2.6 3.5 0.00 0.00 0.00 42 1018.0
20260905202003 80 9 2.6 3.5 0.00 0.00 0.00 43 1018.0
20260905201503 80 8 1.7 2.6 0.00 0.00 0.00 44 1018.0
20260905201003 80 2 1.7 2.6 0.00 0.00 0.00 44 1017.7
20260905200503 80 2 1.7 2.6 0.00 0.00 0.00 44 1018.0
20260905200003 80 9 0.9 2.6 0.00 0.00 0.00 44 1017.9
20260905195503 81 8 0.9 1.7 0.00 0.00 0.00 45 1017.8
20260905195024 81 3 0.9 1.7 0.00 0.00 0.00 45 1017.8
20260905194503 81 6 0.9 2.6 0.00 0.00 0.00 46 1017.8
20260905194003 81 13 0.9 2.6 0.00 0.00 0.00 47 1017.8
20260905193503 81 16 0.9 2.6 0.00 0.00 0.00 48 1017.6
20260905193003 82 3 0.0 2.6 0.00 0.00 0.00 45 1017.7
20260905192503 81 16 0.9 3.5 0.00 0.00 0.00 51 1017.6
20260905192024 81 16 1.7 3.5 0.00 0.00 0.00 52 1017.5
20260905191524 81 11 0.0 0.9 0.00 0.00 0.00 54 1017.5
20260905191003 81 348 0.0 0.9 0.00 0.00 0.00 56 1017.3
20260905190503 81 1 0.0 0.9 0.00 0.00 0.00 58 1017.3
20260905190003 80 22 0.9 3.5 0.00 0.00 0.00 60 1017.3
20260905185503 80 22 0.9 3.5 0.00 0.00 0.00 61 1017.2
20260905185003 80 0 0.0 0.0 0.00 0.00 0.00 60 1017.1
20260905184503 80 22 0.0 1.7 0.00 0.00 0.00 60 1017.2
20260905184003 80 22 0.0 1.7 0.00 0.00 0.00 61 1016.9
20260905183503 80 0 0.0 0.0 0.00 0.00 0.00 61 1016.9
20260905183003 80 0 0.0 0.0 0.00 0.00 0.00 62 1016.8
20260905182503 80 0 0.0 0.0 0.00 0.00 0.00 62 1016.7
20260905182003 80 0 0.0 0.0 0.00 0.00 0.00 61 1016.8
20260905181503 81 0 0.0 0.0 0.00 0.00 0.00 60 1016.6
20260905181003 81 0 0.0 0.0 0.00 0.00 0.00 60 1016.6
20260905180503 82 0 0.0 0.0 0.00 0.00 0.00 53 1016.6
20260905180024 82 0 0.0 0.0 0.00 0.00 0.00 53 1016.5
20260905175503 83 0 0.0 0.0 0.00 0.00 0.00 51 1016.6
20260905175003 83 0 0.0 0.0 0.00 0.00 0.00 51 1016.5
20260905174503 83 0 0.0 0.0 0.00 0.00 0.00 50 1016.5
20260905174003 83 0 0.0 0.0 0.00 0.00 0.00 51 1016.5
20260905173503 83 0 0.0 0.0 0.00 0.00 0.00 51 1016.4
20260905173024 83 0 0.0 0.0 0.00 0.00 0.00 52 1016.4
20260905172503 83 0 0.0 0.0 0.00 0.00 0.00 52 1016.2
20260905172003 84 0 0.0 0.0 0.00 0.00 0.00 53 1016.1
20260905171503 85 0 0.0 0.0 0.00 0.00 0.00 52 1016.2
20260905171024 85 0 0.0 0.0 0.00 0.00 0.00 52 1016.3
20260905170503 86 0 0.0 0.0 0.00 0.00 0.00 51 1016.3
20260905170003 87 0 0.0 0.0 0.00 0.00 0.00 51 1016.3
20260905165503 87 0 0.0 0.0 0.00 0.00 0.00 48 1016.2
20260905165003 87 0 0.0 0.0 0.00 0.00 0.00 47 1016.2
20260905164503 87 0 0.0 0.0 0.00 0.00 0.00 46 1016.2
20260905164003 87 0 0.0 0.0 0.00 0.00 0.00 46 1016.2
20260905163503 87 0 0.0 0.0 0.00 0.00 0.00 46 1016.2
20260905163003 87 0 0.0 0.0 0.00 0.00 0.00 46 1016.1
20260905162503 88 338 0.0 0.9 0.00 0.00 0.00 47 1016.1
20260905162003 88 338 0.0 0.9 0.00 0.00 0.00 46 1016.1
20260905161503 88 360 0.0 0.9 0.00 0.00 0.00 47 1016.1
20260905161003 88 360 0.0 0.9 0.00 0.00 0.00 46 1016.1
20260905160503 88 0 0.0 0.0 0.00 0.00 0.00 47 1016.2
20260905160003 88 0 0.0 0.0 0.00 0.00 0.00 47 1016.1
20260905155503 88 0 0.0 0.0 0.00 0.00 0.00 48 1016.2
20260905155003 88 0 0.0 0.0 0.00 0.00 0.00 49 1016.1
20260905154503 88 0 0.0 0.0 0.00 0.00 0.00 49 1016.0
20260905154003 87 0 0.0 0.0 0.00 0.00 0.00 48 1015.9
20260905153503 87 0 0.0 0.0 0.00 0.00 0.00 46 1015.9
20260905153003 88 0 0.0 0.0 0.00 0.00 0.00 45 1016.1
20260905152503 88 315 0.0 0.9 0.00 0.00 0.00 43 1016.1
20260905152003 88 315 0.0 0.9 0.00 0.00 0.00 42 1016.2
20260905151503 89 315 0.0 0.9 0.00 0.00 0.00 43 1016.1
20260905151003 89 315 0.0 0.9 0.00 0.00 0.00 42 1016.2
20260905150524 90 315 0.0 0.9 0.00 0.00 0.00 43 1016.2
20260905150003 90 315 0.0 0.9 0.00 0.00 0.00 43 1016.3
20260905145503 89 0 0.0 0.0 0.00 0.00 0.00 42 1016.2
20260905145024 89 315 0.0 0.9 0.00 0.00 0.00 42 1016.2
20260905144524 89 315 0.0 0.9 0.00 0.00 0.00 42 1016.2
20260905144003 89 329 0.0 3.5 0.00 0.00 0.00 42 1016.1
20260905143503 90 304 0.9 3.5 0.00 0.00 0.00 42 1016.1
20260905143003 90 304 0.9 4.3 0.00 0.00 0.00 41 1016.2
20260905142524 90 306 2.6 5.2 0.00 0.00 0.00 42 1016.2
20260905142003 90 304 3.5 5.2 0.00 0.00 0.00 41 1016.2
20260905141503 91 304 2.6 5.2 0.00 0.00 0.00 38 1016.3
20260905141003 91 294 0.9 3.5 0.00 0.00 0.00 38 1016.2
20260905140503 91 0 0.0 0.0 0.00 0.00 0.00 38 1016.2
20260905140004 91 315 0.0 0.9 0.00 0.00 0.00 38 1016.3
20260905135503 91 315 0.0 0.9 0.00 0.00 0.00 39 1016.3
20260905135003 91 315 0.0 0.9 0.00 0.00 0.00 38 1016.3
20260905134503 91 292 0.0 0.9 0.00 0.00 0.00 39 1016.3
20260905134003 91 301 0.0 0.9 0.00 0.00 0.00 40 1016.5
20260905133503 91 315 0.0 0.9 0.00 0.00 0.00 40 1016.4
20260905133003 91 274 0.0 3.5 0.00 0.00 0.00 40 1016.6
20260905132503 90 290 0.9 3.5 0.00 0.00 0.00 42 1016.7
20260905132003 90 288 0.9 3.5 0.00 0.00 0.00 42 1016.6
20260905131503 90 293 0.9 1.7 0.00 0.00 0.00 42 1016.6
20260905131024 90 303 0.9 1.7 0.00 0.00 0.00 42 1016.6
20260905130503 90 315 0.0 1.7 0.00 0.00 0.00 45 1016.8
20260905130003 90 315 0.0 1.7 0.00 0.00 0.00 45 1016.7
20260905125503 90 0 0.0 0.0 0.00 0.00 0.00 44 1016.8
20260905125003 89 0 0.0 0.0 0.00 0.00 0.00 44 1016.8
20260905124503 89 315 0.0 1.7 0.00 0.00 0.00 45 1016.9
20260905124003 89 321 0.9 1.7 0.00 0.00 0.00 45 1017.0
20260905123503 89 321 0.0 0.9 0.00 0.00 0.00 45 1017.0
20260905123003 89 307 0.9 1.7 0.00 0.00 0.00 45 1016.9
20260905122503 88 308 0.0 1.7 0.00 0.00 0.00 44 1016.9
20260905122003 89 315 0.0 0.9 0.00 0.00 0.00 45 1016.9
20260905121503 89 315 0.0 0.9 0.00 0.00 0.00 46 1017.0
20260905121024 89 315 0.0 0.9 0.00 0.00 0.00 47 1016.9
20260905120503 88 315 0.0 1.7 0.00 0.00 0.00 48 1016.9
20260905120024 88 332 0.9 3.5 0.00 0.00 0.00 48 1016.9
20260905115503 88 310 1.7 3.5 0.00 0.00 0.00 49 1016.9
20260905115003 87 305 2.6 4.3 0.00 0.00 0.00 48 1017.1
20260905114505 87 315 1.7 4.3 0.00 0.00 0.00 47 1017.1
20260905114026 88 315 0.0 2.6 0.00 0.00 0.00 48 1017.1
20260905113505 87 273 0.0 0.9 0.00 0.00 0.00 49 1017.2
20260905113005 87 247 0.0 0.9 0.00 0.00 0.00 48 1017.2
20260905112526 87 247 0.0 0.9 0.00 0.00 0.00 48 1017.1
20260905112005 87 315 0.0 0.9 0.00 0.00 0.00 48 1017.1
20260905111505 87 336 0.0 1.7 0.00 0.00 0.00 47 1017.4
20260905111005 87 78 0.0 1.7 0.00 0.00 0.00 47 1017.1
20260905110526 86 0 0.0 0.0 0.00 0.00 0.00 47 1017.3
20260905110005 86 315 0.0 0.9 0.00 0.00 0.00 47 1017.1
20260905105505 86 315 0.0 0.9 0.00 0.00 0.00 47 1017.2
20260905105026 85 315 0.0 0.9 0.00 0.00 0.00 47 1017.3
20260905104505 85 315 0.0 0.9 0.00 0.00 0.00 47 1017.3
20260905104005 85 287 0.9 3.5 0.00 0.00 0.00 47 1017.2
20260905103505 85 295 0.9 3.5 0.00 0.00 0.00 46 1017.3
20260905103005 85 306 2.6 7.8 0.00 0.00 0.00 48 1017.2
20260905102505 85 297 2.6 7.8 0.00 0.00 0.00 47 1017.2
20260905102005 85 298 1.7 7.8 0.00 0.00 0.00 48 1017.2
20260905101505 85 336 0.9 3.5 0.00 0.00 0.00 48 1017.2
20260905101005 85 0 0.0 0.0 0.00 0.00 0.00 49 1017.2
20260905100505 85 0 0.0 0.0 0.00 0.00 0.00 50 1017.2
20260905100005 85 315 0.0 0.9 0.00 0.00 0.00 50 1017.3
20260905095505 84 315 0.0 0.9 0.00 0.00 0.00 48 1017.3
20260905095005 84 0 0.0 0.0 0.00 0.00 0.00 50 1017.2
20260905094505 84 0 0.0 0.0 0.00 0.00 0.00 50 1017.3
20260905094005 84 0 0.0 0.0 0.00 0.00 0.00 50 1017.3
20260905093526 84 0 0.0 0.0 0.00 0.00 0.00 50 1017.3
20260905093005 83 0 0.0 0.0 0.00 0.00 0.00 50 1017.3
20260905092505 83 0 0.0 0.0 0.00 0.00 0.00 50 1017.3
20260905092005 83 0 0.0 0.0 0.00 0.00 0.00 51 1017.1
20260905091505 83 0 0.0 0.0 0.00 0.00 0.00 52 1017.2
20260905091026 83 0 0.0 0.0 0.00 0.00 0.00 53 1017.0
20260905090505 81 0 0.0 0.0 0.00 0.00 0.00 59 1017.0
20260905090026 81 0 0.0 0.0 0.00 0.00 0.00 59 1017.0
20260905085526 81 0 0.0 0.0 0.00 0.00 0.00 59 1017.1
20260905085005 80 0 0.0 0.0 0.00 0.00 0.00 60 1017.1
20260905084505 80 0 0.0 0.0 0.00 0.00 0.00 60 1017.2
20260905084005 79 0 0.0 0.0 0.00 0.00 0.00 61 1017.1
20260905083505 78 0 0.0 0.0 0.00 0.00 0.00 61 1017.0
20260905083005 78 0 0.0 0.0 0.00 0.00 0.00 62 1017.0
20260905082505 77 0 0.0 0.0 0.00 0.00 0.00 62 1016.9
20260905082026 77 0 0.0 0.0 0.00 0.00 0.00 61 1016.9
20260905081526 77 0 0.0 0.0 0.00 0.00 0.00 61 1017.0
20260905081026 77 0 0.0 0.0 0.00 0.00 0.00 61 1016.8
20260905080526 77 0 0.0 0.0 0.00 0.00 0.00 61 1016.8
20260905080005 77 0 0.0 0.0 0.00 0.00 0.00 61 1017.0
20260905075505 77 0 0.0 0.0 0.00 0.00 0.00 62 1016.7
20260905075005 77 0 0.0 0.0 0.00 0.00 0.00 62 1016.7
20260905074505 76 0 0.0 0.0 0.00 0.00 0.00 62 1016.7
20260905074005 76 0 0.0 0.0 0.00 0.00 0.00 63 1016.5
20260905073505 76 0 0.0 0.0 0.00 0.00 0.00 63 1016.6
20260905073005 75 0 0.0 0.0 0.00 0.00 0.00 64 1016.7
20260905072505 75 0 0.0 0.0 0.00 0.00 0.00 64 1016.6
20260905072026 75 0 0.0 0.0 0.00 0.00 0.00 64 1016.6
20260905071505 75 0 0.0 0.0 0.00 0.00 0.00 65 1016.6
20260905071005 75 0 0.0 0.0 0.00 0.00 0.00 65 1016.5
20260905070505 73 0 0.0 0.0 0.00 0.00 0.00 66 1016.5
20260905070005 73 0 0.0 0.0 0.00 0.00 0.00 66 1016.4
20260905065505 73 0 0.0 0.0 0.00 0.00 0.00 65 1016.5
20260905065005 73 0 0.0 0.0 0.00 0.00 0.00 65 1016.3
20260905064505 73 0 0.0 0.0 0.00 0.00 0.00 65 1016.5
20260905064026 72 0 0.0 0.0 0.00 0.00 0.00 64 1016.4
20260905063505 72 0 0.0 0.0 0.00 0.00 0.00 65 1016.4
20260905063026 73 0 0.0 0.0 0.00 0.00 0.00 65 1016.5
20260905062505 73 0 0.0 0.0 0.00 0.00 0.00 65 1016.3
20260905062005 73 0 0.0 0.0 0.00 0.00 0.00 65 1016.4
20260905061505 73 0 0.0 0.0 0.00 0.00 0.00 64 1016.3
20260905061005 73 0 0.0 0.0 0.00 0.00 0.00 65 1016.2
20260905060505 73 0 0.0 0.0 0.00 0.00 0.00 66 1016.1
20260905060005 73 0 0.0 0.0 0.00 0.00 0.00 66 1016.2
20260905055505 72 0 0.0 0.0 0.00 0.00 0.00 70 1016.1
20260905055005 72 0 0.0 0.0 0.00 0.00 0.00 70 1016.3
20260905054505 71 8 0.9 3.5 0.00 0.00 0.00 71 1016.1
20260905054026 70 11 2.6 3.5 0.00 0.00 0.00 72 1016.2
20260905053505 70 12 1.7 3.5 0.00 0.00 0.00 72 1016.1
20260905053005 69 360 0.9 2.6 0.00 0.00 0.00 72 1016.1
20260905052505 69 8 1.7 4.3 0.00 0.00 0.00 72 1016.0
20260905052026 69 11 3.5 4.3 0.00 0.00 0.00 72 1016.0
20260905051505 69 8 2.6 4.3 0.00 0.00 0.00 71 1015.9
20260905051005 69 348 1.7 3.5 0.00 0.00 0.00 70 1015.8
20260905050505 69 343 0.9 2.6 0.00 0.00 0.00 70 1015.9
20260905050005 69 350 0.9 2.6 0.00 0.00 0.00 69 1015.9
20260905045505 69 354 2.6 4.3 0.00 0.00 0.00 68 1015.7
20260905045026 70 1 2.6 4.3 0.00 0.00 0.00 68 1015.6
20260905044505 70 6 2.6 3.5 0.00 0.00 0.00 68 1015.6
20260905044026 70 11 1.7 3.5 0.00 0.00 0.00 68 1015.7
20260905043526 70 20 1.7 3.5 0.00 0.00 0.00 68 1015.6
20260905043005 70 26 1.7 3.5 0.00 0.00 0.00 68 1015.5
20260905042505 70 30 1.7 3.5 0.00 0.00 0.00 69 1015.2